Location: Sungai Bunut
(2.6333°N, 113.7333°E)
Time: 15:12:58
(UTC+00:00)

Altair - Pass Details

Date: 11 December 2023
Orbit: 1501 x 1682 km, 47.2° (Epoch: 24 February)

Event Time Altitude Azimuth Distance (km) Brightness Sun altitude
Rises 05:08:36 0° 355° (N) 4,645 9.8 61.6°
Reaches altitude 10° 05:16:40 10° 38° (NE) 3,643 9.3 60.7°
Maximum altitude 05:17:11 10° 41° (NE) 3,639 9.3 60.6°
Drops below altitude 10° 05:17:40 10° 45° (NE) 3,642 9.3 60.6°
Sets 05:25:40 0° 88° (E) 4,635 9.8 59.5°
